| time (UTC) | temp C | wind direction | speed KPH | gust KPH | rain 1hr cm | rain 24hr cm | rain mn cm | humidity % | barometer mb |
| 20260504130519 | 10 | 242 | 0.0 | 4.8 | 0.00 | 0.00 | 0.00 | 67 | 1013.6 |
| 20260504110537 | 2 | 247 | 0.0 | 0.0 | 0.00 | 0.00 | 0.00 | 92 | 1014.1 |
| 20260504100526 | 2 | 247 | 0.0 | 0.0 | 0.00 | 0.00 | 0.00 | 91 | 1013.9 |
| 20260504081535 | 2 | 247 | 0.0 | 0.0 | 0.00 | 0.00 | 0.00 | 89 | 1014.3 |
| 20260504081030 | 2 | 247 | 0.0 | 0.0 | 0.00 | 0.00 | 0.00 | 88 | 1014.2 |
| 20260504080526 | 2 | 247 | 0.0 | 0.0 | 0.00 | 0.00 | 0.00 | 88 | 1014.2 |
| 20260504050524 | 5 | 247 | 0.0 | 0.0 | 0.00 | 0.00 | 0.00 | 77 | 1013.9 |
| 20260504050020 | 5 | 247 | 0.0 | 0.0 | 0.00 | 0.00 | 0.00 | 76 | 1013.9 |
| 20260504045521 | 5 | 247 | 0.0 | 0.0 | 0.00 | 0.00 | 0.00 | 76 | 1013.8 |
| 20260504045018 | 5 | 247 | 0.0 | 0.0 | 0.00 | 0.00 | 0.00 | 76 | 1013.8 |
| 20260504044534 | 6 | 247 | 0.0 | 0.0 | 0.00 | 0.00 | 0.00 | 75 | 1013.8 |
| 20260504044031 | 6 | 247 | 0.0 | 0.0 | 0.00 | 0.00 | 0.00 | 74 | 1013.8 |
| 20260504043526 | 6 | 247 | 0.0 | 0.0 | 0.00 | 0.00 | 0.00 | 74 | 1013.7 |
| 20260504043022 | 6 | 247 | 0.0 | 0.0 | 0.00 | 0.00 | 0.00 | 74 | 1013.8 |
| 20260504042520 | 6 | 247 | 0.0 | 0.0 | 0.00 | 0.00 | 0.00 | 73 | 1013.6 |
| 20260504042020 | 6 | 247 | 0.0 | 0.0 | 0.00 | 0.00 | 0.00 | 73 | 1013.6 |
| 20260504041536 | 6 | 247 | 0.0 | 0.0 | 0.00 | 0.00 | 0.00 | 73 | 1013.6 |
| 20260504041032 | 6 | 247 | 0.0 | 0.0 | 0.00 | 0.00 | 0.00 | 73 | 1013.7 |
| 20260504040528 | 6 | 247 | 0.0 | 0.0 | 0.00 | 0.00 | 0.00 | 72 | 1013.5 |
| 20260504040024 | 6 | 247 | 0.0 | 0.0 | 0.00 | 0.00 | 0.00 | 73 | 1013.5 |
| 20260504035520 | 6 | 247 | 0.0 | 0.0 | 0.00 | 0.00 | 0.00 | 72 | 1013.4 |
| 20260504035037 | 6 | 247 | 0.0 | 0.0 | 0.00 | 0.00 | 0.00 | 71 | 1013.3 |
| 20260504034517 | 7 | 247 | 0.0 | 0.0 | 0.00 | 0.00 | 0.00 | 69 | 1013.2 |
| 20260504034034 | 7 | 247 | 0.0 | 0.0 | 0.00 | 0.00 | 0.00 | 69 | 1013.3 |
| 20260504033531 | 7 | 247 | 0.0 | 0.0 | 0.00 | 0.00 | 0.00 | 68 | 1013.3 |
| 20260504033028 | 7 | 247 | 0.0 | 0.0 | 0.00 | 0.00 | 0.00 | 68 | 1013.2 |
| 20260504032524 | 7 | 247 | 0.0 | 0.0 | 0.00 | 0.00 | 0.00 | 67 | 1013.2 |
| 20260504032021 | 7 | 247 | 0.0 | 0.0 | 0.00 | 0.00 | 0.00 | 65 | 1013.2 |
| 20260504031537 | 7 | 247 | 0.0 | 0.0 | 0.00 | 0.00 | 0.00 | 66 | 1013.1 |
| 20260504031017 | 7 | 247 | 0.0 | 0.0 | 0.00 | 0.00 | 0.00 | 66 | 1013.0 |
| 20260504030534 | 8 | 247 | 0.0 | 0.0 | 0.00 | 0.00 | 0.00 | 65 | 1013.0 |
| 20260504030031 | 8 | 247 | 0.0 | 0.0 | 0.00 | 0.00 | 0.00 | 64 | 1013.0 |
| 20260504025528 | 8 | 247 | 0.0 | 0.0 | 0.00 | 0.00 | 0.00 | 61 | 1013.0 |
| 20260504025024 | 8 | 247 | 0.0 | 0.0 | 0.00 | 0.00 | 0.00 | 60 | 1013.0 |
| 20260504024520 | 8 | 247 | 0.0 | 0.0 | 0.00 | 0.00 | 0.00 | 60 | 1013.0 |
| 20260504024037 | 8 | 247 | 0.0 | 0.0 | 0.00 | 0.00 | 0.00 | 59 | 1012.9 |
| 20260504023517 | 8 | 247 | 0.0 | 0.0 | 0.00 | 0.00 | 0.00 | 59 | 1013.0 |
| 20260504023034 | 8 | 247 | 0.0 | 0.0 | 0.00 | 0.00 | 0.00 | 60 | 1013.0 |
| 20260504022531 | 9 | 247 | 0.0 | 0.0 | 0.00 | 0.00 | 0.00 | 59 | 1013.1 |
| 20260504022027 | 9 | 247 | 0.0 | 0.0 | 0.00 | 0.00 | 0.00 | 58 | 1013.1 |
| 20260504021524 | 9 | 247 | 0.0 | 0.0 | 0.00 | 0.00 | 0.00 | 59 | 1013.1 |
| 20260504021020 | 9 | 247 | 0.0 | 0.0 | 0.00 | 0.00 | 0.00 | 58 | 1013.2 |
| 20260504020537 | 10 | 247 | 0.0 | 0.0 | 0.00 | 0.00 | 0.00 | 56 | 1013.1 |
| 20260504020033 | 10 | 247 | 0.0 | 0.0 | 0.00 | 0.00 | 0.00 | 56 | 1013.0 |
| 20260504015531 | 10 | 247 | 0.0 | 0.0 | 0.00 | 0.00 | 0.00 | 55 | 1013.0 |
| 20260504015026 | 10 | 247 | 0.0 | 0.0 | 0.00 | 0.00 | 0.00 | 52 | 1013.0 |
| 20260504014523 | 10 | 247 | 0.0 | 0.0 | 0.00 | 0.00 | 0.00 | 52 | 1012.8 |
| 20260504014019 | 11 | 247 | 0.0 | 0.0 | 0.00 | 0.00 | 0.00 | 51 | 1012.7 |
| 20260504013536 | 11 | 247 | 0.0 | 0.0 | 0.00 | 0.00 | 0.00 | 51 | 1012.8 |
| 20260504013032 | 11 | 247 | 0.0 | 0.0 | 0.00 | 0.00 | 0.00 | 50 | 1012.8 |
| 20260504012532 | 11 | 247 | 0.0 | 0.0 | 0.00 | 0.00 | 0.00 | 49 | 1012.8 |
| 20260504012029 | 11 | 247 | 0.0 | 0.0 | 0.00 | 0.00 | 0.00 | 48 | 1012.8 |
| 20260504011526 | 11 | 247 | 0.0 | 0.0 | 0.00 | 0.00 | 0.00 | 48 | 1012.7 |
| 20260504011021 | 11 | 247 | 0.0 | 0.0 | 0.00 | 0.00 | 0.00 | 47 | 1012.7 |
| 20260504010518 | 12 | 247 | 0.0 | 0.0 | 0.00 | 0.00 | 0.00 | 46 | 1012.7 |
| 20260504010035 | 12 | 247 | 0.0 | 0.0 | 0.00 | 0.00 | 0.00 | 46 | 1012.5 |
| 20260504005532 | 12 | 247 | 0.0 | 0.0 | 0.00 | 0.00 | 0.00 | 45 | 1012.5 |
| 20260504005033 | 12 | 247 | 0.0 | 0.0 | 0.00 | 0.00 | 0.00 | 45 | 1012.5 |
| 20260504004528 | 12 | 247 | 0.0 | 1.6 | 0.00 | 0.00 | 0.00 | 44 | 1012.4 |
| 20260504004026 | 12 | 247 | 0.0 | 3.2 | 0.00 | 0.00 | 0.00 | 44 | 1012.3 |
| 20260504003521 | 12 | 248 | 0.0 | 3.2 | 0.00 | 0.00 | 0.00 | 44 | 1012.3 |
| 20260504003036 | 12 | 247 | 0.0 | 0.0 | 0.00 | 0.00 | 0.00 | 43 | 1012.2 |
| 20260504002533 | 13 | 247 | 0.0 | 0.0 | 0.00 | 0.00 | 0.00 | 44 | 1012.2 |
| 20260504002029 | 13 | 247 | 0.0 | 0.0 | 0.00 | 0.00 | 0.00 | 43 | 1012.1 |
| 20260504001529 | 13 | 247 | 0.0 | 8.0 | 0.00 | 0.00 | 0.00 | 43 | 1012.2 |
| 20260504001026 | 13 | 247 | 1.6 | 8.0 | 0.00 | 0.00 | 0.00 | 43 | 1012.0 |
| 20260504000522 | 13 | 253 | 0.0 | 6.4 | 0.00 | 0.00 | 0.00 | 43 | 1012.0 |
| 20260504000037 | 13 | 252 | 0.0 | 6.4 | 0.00 | 0.00 | 0.00 | 42 | 1011.9 |
| 20260503235533 | 13 | 239 | 1.6 | 8.0 | 0.00 | 0.00 | 0.00 | 42 | 1011.8 |
| 20260503235029 | 13 | 249 | 1.6 | 8.0 | 0.00 | 0.00 | 0.00 | 40 | 1011.8 |
| 20260503234525 | 14 | 249 | 0.0 | 6.4 | 0.00 | 0.00 | 0.00 | 40 | 1011.8 |
| 20260503234026 | 14 | 249 | 1.6 | 11.3 | 0.00 | 0.00 | 0.00 | 39 | 1011.7 |
| 20260503233522 | 14 | 219 | 3.2 | 12.9 | 0.00 | 0.00 | 0.00 | 38 | 1011.6 |
| 20260503233019 | 14 | 251 | 1.6 | 11.3 | 0.00 | 0.00 | 0.00 | 39 | 1011.6 |
| 20260503232535 | 14 | 259 | 1.6 | 12.9 | 0.00 | 0.00 | 0.00 | 39 | 1011.4 |
| 20260503232032 | 14 | 277 | 1.6 | 12.9 | 0.00 | 0.00 | 0.00 | 38 | 1011.4 |
| 20260503231528 | 15 | 246 | 0.0 | 6.4 | 0.00 | 0.00 | 0.00 | 41 | 1011.3 |
| 20260503231024 | 15 | 246 | 1.6 | 17.7 | 0.00 | 0.00 | 0.00 | 40 | 1011.4 |
| 20260503230525 | 15 | 234 | 6.4 | 19.3 | 0.00 | 0.00 | 0.00 | 38 | 1011.4 |
| 20260503230021 | 15 | 240 | 8.0 | 19.3 | 0.00 | 0.00 | 0.00 | 37 | 1011.3 |
| 20260503225517 | 15 | 233 | 8.0 | 17.7 | 0.00 | 0.00 | 0.00 | 37 | 1011.3 |
| 20260503225034 | 15 | 251 | 4.8 | 19.3 | 0.00 | 0.00 | 0.00 | 38 | 1011.3 |
| 20260503224531 | 15 | 259 | 1.6 | 29.0 | 0.00 | 0.00 | 0.00 | 38 | 1011.4 |
| 20260503224027 | 15 | 264 | 8.0 | 17.7 | 0.00 | 0.00 | 0.00 | 39 | 1011.4 |
| 20260503223523 | 15 | 278 | 0.0 | 14.5 | 0.00 | 0.00 | 0.00 | 38 | 1011.3 |
| 20260503223024 | 16 | 298 | 0.0 | 14.5 | 0.00 | 0.00 | 0.00 | 39 | 1011.3 |
| 20260503222520 | 16 | 305 | 3.2 | 14.5 | 0.00 | 0.00 | 0.00 | 36 | 1011.4 |
| 20260503222035 | 16 | 241 | 4.8 | 11.3 | 0.00 | 0.00 | 0.00 | 39 | 1011.4 |
| 20260503221532 | 15 | 241 | 3.2 | 14.5 | 0.00 | 0.00 | 0.00 | 37 | 1011.3 |
| 20260503221028 | 15 | 268 | 0.0 | 17.7 | 0.00 | 0.00 | 0.00 | 42 | 1011.4 |
| 20260503220522 | 15 | 261 | 6.4 | 22.5 | 0.00 | 0.00 | 0.00 | 37 | 1011.5 |
| 20260503220017 | 15 | 217 | 8.0 | 16.1 | 0.00 | 0.00 | 0.00 | 37 | 1011.4 |
| 20260503215533 | 15 | 245 | 0.0 | 16.1 | 0.00 | 0.00 | 0.00 | 40 | 1011.3 |
| 20260503215032 | 15 | 245 | 1.6 | 16.1 | 0.00 | 0.00 | 0.00 | 37 | 1011.4 |
| 20260503214527 | 15 | 258 | 3.2 | 8.0 | 0.00 | 0.00 | 0.00 | 39 | 1011.3 |
| 20260503214023 | 15 | 287 | 0.0 | 8.0 | 0.00 | 0.00 | 0.00 | 36 | 1011.4 |
| 20260503213517 | 16 | 287 | 1.6 | 14.5 | 0.00 | 0.00 | 0.00 | 36 | 1011.3 |
| 20260503213033 | 16 | 256 | 3.2 | 17.7 | 0.00 | 0.00 | 0.00 | 39 | 1011.2 |
| 20260503212527 | 16 | 272 | 8.0 | 17.7 | 0.00 | 0.00 | 0.00 | 36 | 1011.2 |
| 20260503212023 | 16 | 245 | 8.0 | 19.3 | 0.00 | 0.00 | 0.00 | 37 | 1011.2 |
| 20260503211523 | 16 | 236 | 3.2 | 17.7 | 0.00 | 0.00 | 0.00 | 35 | 1011.2 |
| 20260503211017 | 16 | 291 | 3.2 | 8.0 | 0.00 | 0.00 | 0.00 | 35 | 1011.2 |
| 20260503210533 | 16 | 247 | 3.2 | 11.3 | 0.00 | 0.00 | 0.00 | 37 | 1011.3 |
| 20260503210028 | 15 | 253 | 1.6 | 17.7 | 0.00 | 0.00 | 0.00 | 35 | 1011.1 |
| 20260503205522 | 15 | 274 | 1.6 | 12.9 | 0.00 | 0.00 | 0.00 | 35 | 1011.2 |
| 20260503205018 | 16 | 257 | 1.6 | 9.7 | 0.00 | 0.00 | 0.00 | 35 | 1011.1 |
| 20260503204533 | 16 | 255 | 3.2 | 11.3 | 0.00 | 0.00 | 0.00 | 35 | 1011.1 |
| 20260503204033 | 16 | 290 | 1.6 | 27.4 | 0.00 | 0.00 | 0.00 | 37 | 1011.3 |
| 20260503203528 | 16 | 270 | 8.0 | 27.4 | 0.00 | 0.00 | 0.00 | 36 | 1011.3 |
| 20260503203024 | 15 | 244 | 9.7 | 25.7 | 0.00 | 0.00 | 0.00 | 36 | 1011.2 |
| 20260503202519 | 16 | 239 | 6.4 | 16.1 | 0.00 | 0.00 | 0.00 | 35 | 1011.3 |
| 20260503202036 | 16 | 246 | 8.0 | 22.5 | 0.00 | 0.00 | 0.00 | 37 | 1011.3 |
| 20260503201530 | 16 | 248 | 3.2 | 30.6 | 0.00 | 0.00 | 0.00 | 39 | 1011.5 |
| 20260503201026 | 16 | 264 | 1.6 | 30.6 | 0.00 | 0.00 | 0.00 | 35 | 1011.5 |
| 20260503200526 | 16 | 257 | 1.6 | 12.9 | 0.00 | 0.00 | 0.00 | 36 | 1011.6 |
| 20260503200022 | 15 | 323 | 1.6 | 16.1 | 0.00 | 0.00 | 0.00 | 36 | 1011.5 |
| 20260503195518 | 15 | 250 | 1.6 | 29.0 | 0.00 | 0.00 | 0.00 | 36 | 1011.6 |
| 20260503195035 | 15 | 280 | 9.7 | 29.0 | 0.00 | 0.00 | 0.00 | 36 | 1011.8 |
| 20260503194532 | 15 | 297 | 0.0 | 20.9 | 0.00 | 0.00 | 0.00 | 35 | 1011.8 |
| 20260503194026 | 15 | 238 | 11.3 | 22.5 | 0.00 | 0.00 | 0.00 | 37 | 1011.8 |
| 20260503193521 | 15 | 256 | 4.8 | 19.3 | 0.00 | 0.00 | 0.00 | 37 | 1012.0 |
| 20260503193022 | 15 | 282 | 3.2 | 12.9 | 0.00 | 0.00 | 0.00 | 37 | 1011.9 |
| 20260503192519 | 15 | 322 | 3.2 | 17.7 | 0.00 | 0.00 | 0.00 | 36 | 1012.0 |
| 20260503192036 | 15 | 291 | 4.8 | 22.5 | 0.00 | 0.00 | 0.00 | 38 | 1012.1 |
| 20260503191532 | 15 | 234 | 8.0 | 22.5 | 0.00 | 0.00 | 0.00 | 38 | 1012.3 |
| 20260503191028 | 15 | 223 | 8.0 | 20.9 | 0.00 | 0.00 | 0.00 | 39 | 1012.3 |
| 20260503190525 | 15 | 260 | 1.6 | 9.7 | 0.00 | 0.00 | 0.00 | 36 | 1012.2 |
| 20260503190020 | 15 | 287 | 0.0 | 11.3 | 0.00 | 0.00 | 0.00 | 39 | 1012.3 |
| 20260503185520 | 15 | 287 | 4.8 | 22.5 | 0.00 | 0.00 | 0.00 | 37 | 1012.4 |
| 20260503185036 | 15 | 292 | 8.0 | 22.5 | 0.00 | 0.00 | 0.00 | 37 | 1012.5 |
| 20260503184028 | 14 | 274 | 3.2 | 16.1 | 0.00 | 0.00 | 0.00 | 38 | 1012.4 |
| 20260503183524 | 14 | 345 | 3.2 | 17.7 | 0.00 | 0.00 | 0.00 | 39 | 1012.8 |
| 20260503183022 | 14 | 299 | 4.8 | 17.7 | 0.00 | 0.00 | 0.00 | 39 | 1012.8 |
| 20260503182518 | 14 | 277 | 1.6 | 17.7 | 0.00 | 0.00 | 0.00 | 38 | 1012.8 |
| 20260503182017 | 14 | 272 | 8.0 | 17.7 | 0.00 | 0.00 | 0.00 | 42 | 1012.9 |
| 20260503181534 | 13 | 338 | 1.6 | 16.1 | 0.00 | 0.00 | 0.00 | 39 | 1012.6 |
| 20260503181029 | 14 | 18 | 6.4 | 17.7 | 0.00 | 0.00 | 0.00 | 38 | 1012.6 |
| 20260503180525 | 14 | 318 | 6.4 | 17.7 | 0.00 | 0.00 | 0.00 | 40 | 1013.0 |
| 20260503180020 | 13 | 317 | 6.4 | 16.1 | 0.00 | 0.00 | 0.00 | 42 | 1012.8 |
| 20260503175537 | 13 | 274 | 4.8 | 24.1 | 0.00 | 0.00 | 0.00 | 42 | 1012.9 |
| 20260503175032 | 13 | 270 | 8.0 | 24.1 | 0.00 | 0.00 | 0.00 | 42 | 1013.0 |
| 20260503174529 | 13 | 243 | 6.4 | 16.1 | 0.00 | 0.00 | 0.00 | 43 | 1012.9 |
| 20260503174027 | 13 | 266 | 6.4 | 14.5 | 0.00 | 0.00 | 0.00 | 42 | 1013.0 |
| 20260503173523 | 13 | 266 | 1.6 | 17.7 | 0.00 | 0.00 | 0.00 | 39 | 1013.1 |
| 20260503173019 | 13 | 281 | 9.7 | 27.4 | 0.00 | 0.00 | 0.00 | 38 | 1013.1 |
| 20260503172535 | 13 | 278 | 4.8 | 27.4 | 0.00 | 0.00 | 0.00 | 38 | 1013.1 |
| 20260503172030 | 12 | 309 | 4.8 | 19.3 | 0.00 | 0.00 | 0.00 | 39 | 1013.0 |
| 20260503171524 | 12 | 271 | 4.8 | 24.1 | 0.00 | 0.00 | 0.00 | 42 | 1013.2 |
| 20260503171020 | 12 | 243 | 4.8 | 20.9 | 0.00 | 0.00 | 0.00 | 40 | 1013.3 |
| 20260503170522 | 12 | 261 | 6.4 | 12.9 | 0.00 | 0.00 | 0.00 | 38 | 1013.3 |
| 20260503150518 | 9 | 287 | 0.0 | 11.3 | 0.00 | 0.00 | 0.00 | 51 | 1014.1 |